| time (UTC) | temp C | wind direction | speed KPH | gust KPH | rain 1hr cm | rain 24hr cm | rain mn cm | humidity % | barometer mb |
| 20260504100217 | 22 | 90 | 17.7 | 35.4 | 0.00 | 0.00 | 0.00 | 85 | 1014.0 |
| 20260504081717 | 23 | 45 | 9.7 | 20.9 | 0.00 | 0.00 | 0.00 | 72 | 1014.3 |
| 20260504080218 | 23 | 90 | 11.3 | 20.9 | 0.00 | 0.00 | 0.00 | 72 | 1014.7 |
| 20260504070218 | 23 | 90 | 16.1 | 29.0 | 0.00 | 0.00 | 0.00 | 69 | 1015.3 |
| 20260504060219 | 25 | 90 | 17.7 | 32.2 | 0.00 | 0.00 | 0.00 | 62 | 1015.3 |
| 20260504050218 | 25 | 90 | 9.7 | 27.4 | 0.00 | 0.00 | 0.00 | 64 | 1015.7 |
| 20260504044717 | 26 | 90 | 6.4 | 12.9 | 0.00 | 0.00 | 0.00 | 63 | 1015.7 |
| 20260504043219 | 25 | 135 | 6.4 | 12.9 | 0.00 | 0.00 | 0.00 | 66 | 1015.8 |
| 20260504041718 | 25 | 135 | 6.4 | 12.9 | 0.00 | 0.00 | 0.00 | 66 | 1015.8 |
| 20260504040218 | 24 | 90 | 4.8 | 16.1 | 0.00 | 0.00 | 0.00 | 68 | 1016.1 |
| 20260504034718 | -17 | 0.0 | 0.0 | 0.00 | 0.00 | 0.00 | |||
| 20260504033219 | -17 | 135 | 9.7 | 17.7 | 0.00 | 0.00 | 0.00 | 66 | 1016.0 |
| 20260504031718 | -17 | 0 | 1.6 | 9.7 | 0.00 | 0.00 | 0.00 | 66 | 1016.1 |
| 20260504030218 | -17 | 135 | 17.7 | 29.0 | 0.00 | 0.00 | 0.00 | 66 | 1016.3 |
| 20260504024717 | -17 | 0.0 | 0.0 | 0.00 | 0.00 | 0.00 | |||
| 20260504023217 | -17 | 90 | 17.7 | 25.7 | 0.00 | 0.00 | 0.00 | 69 | 1016.2 |
| 20260504021720 | -17 | 0.0 | 0.0 | 0.00 | 0.00 | 0.00 | |||
| 20260504020230 | -17 | 135 | 4.8 | 14.5 | 0.00 | 0.00 | 0.00 | 67 | 1016.1 |
| 20260504014727 | -17 | 0 | 1.6 | 11.3 | 0.00 | 0.00 | 0.00 | 68 | 1016.2 |
| 20260504013223 | -17 | 0.0 | 0.0 | 0.00 | 0.00 | 0.00 | |||
| 20260504011733 | -17 | 135 | 4.8 | 11.3 | 0.00 | 0.00 | 0.00 | 70 | 1015.7 |
| 20260504010233 | -17 | 135 | 3.2 | 8.0 | 0.00 | 0.00 | 0.00 | 67 | 1015.5 |
| 20260504004737 | -17 | 135 | 0.0 | 3.2 | 0.00 | 0.00 | 0.00 | 69 | 1015.5 |
| 20260504003238 | -17 | 0.0 | 0.0 | 0.00 | 0.00 | 0.00 | |||
| 20260504001735 | -17 | 270 | 4.8 | 8.0 | 0.00 | 0.00 | 0.00 | 78 | 1015.6 |
| 20260504000525 | -17 | 135 | 4.8 | 9.7 | 0.00 | 0.00 | 0.00 | 71 | 1015.2 |
| 20260503235026 | -17 | 0.0 | 0.0 | 0.00 | 0.00 | 0.00 | |||
| 20260503233225 | -17 | 180 | 1.6 | 4.8 | 0.00 | 0.00 | 0.00 | 76 | 1014.8 |
| 20260503231724 | -17 | 225 | 1.6 | 4.8 | 0.00 | 0.00 | 0.00 | 77 | 1014.5 |
| 20260503230240 | -17 | 180 | 0.0 | 3.2 | 0.00 | 0.00 | 0.00 | 78 | 1014.2 |
| 20260503224732 | -17 | 225 | 1.6 | 4.8 | 0.00 | 0.00 | 0.00 | 80 | 1014.0 |
| 20260503223432 | -17 | 0.0 | 0.0 | 0.00 | 0.00 | 0.00 | |||
| 20260503221718 | -17 | 180 | 3.2 | 6.4 | 0.00 | 0.00 | 0.00 | 79 | 1013.7 |
| 20260503220217 | -17 | 180 | 1.6 | 4.8 | 0.00 | 0.00 | 0.00 | 79 | 1013.2 |
| 20260503214717 | -17 | 135 | 3.2 | 4.8 | 0.00 | 0.00 | 0.00 | 82 | 1013.1 |
| 20260503213218 | -17 | 135 | 0.0 | 3.2 | 0.00 | 0.00 | 0.00 | 86 | 1012.6 |
| 20260503211717 | -17 | 3.2 | 14.5 | 0.00 | 0.00 | 0.00 | 85 | 1012.5 | |
| 20260503210219 | -17 | 315 | 4.8 | 9.7 | 0.00 | 0.00 | 0.00 | 88 | 1012.0 |
| 20260503204718 | -17 | 315 | 4.8 | 9.7 | 0.00 | 0.00 | 0.00 | 88 | 1011.8 |
| 20260503203218 | -17 | 315 | 1.6 | 4.8 | 0.00 | 0.00 | 0.00 | 89 | 1011.8 |
| 20260503201718 | -17 | 315 | 1.6 | 4.8 | 0.00 | 0.00 | 0.00 | 88 | 1011.7 |
| 20260503200218 | -17 | 270 | 4.8 | 9.7 | 0.00 | 0.00 | 0.00 | 90 | 1011.8 |
| 20260503194717 | -17 | 270 | 12.9 | 17.7 | 0.00 | 0.00 | 0.00 | 89 | 1012.0 |
| 20260503193219 | -17 | 270 | 11.3 | 17.7 | 0.00 | 0.00 | 0.00 | 89 | 1012.3 |
| 20260503191718 | -17 | 315 | 12.9 | 19.3 | 0.00 | 0.00 | 0.00 | 89 | 1012.2 |
| 20260503190218 | -17 | 315 | 8.0 | 12.9 | 0.00 | 0.00 | 0.00 | 89 | 1012.4 |
| 20260503184718 | -17 | 270 | 4.8 | 6.4 | 0.00 | 0.00 | 0.00 | 88 | 1012.3 |
| 20260503183218 | -17 | 0.0 | 0.0 | 0.00 | 0.00 | 0.00 | |||
| 20260503181717 | -17 | 0.0 | 0.0 | 0.00 | 0.00 | 0.00 | |||
| 20260503180218 | -17 | 270 | 0.0 | 3.2 | 0.00 | 0.00 | 0.00 | 91 | 1013.1 |
| 20260503174718 | -17 | 0.0 | 0.0 | 0.00 | 0.00 | 0.00 | |||
| 20260503173218 | -17 | 270 | 0.0 | 1.6 | 0.00 | 0.00 | 0.00 | 92 | 1013.5 |
| 20260503171720 | -17 | 0.0 | 0.0 | 0.00 | 0.00 | 0.00 | |||
| 20260503170221 | -17 | 0.0 | 0.0 | 0.00 | 0.00 | 0.00 | 93 | 1014.1 | |
| 20260503160218 | -17 | 135 | 6.4 | 12.9 | 0.00 | 0.00 | 0.00 | 94 | 1014.3 |
| 20260503150218 | -17 | 135 | 12.9 | 17.7 | 0.00 | 0.00 | 0.00 | 94 | 1014.0 |
| 20260503140218 | -17 | 225 | 1.6 | 8.0 | 0.00 | 0.00 | 0.00 | 94 | 1013.8 |
| 20260503130217 | -17 | 270 | 4.8 | 9.7 | 0.00 | 0.00 | 0.00 | 94 | 1013.5 |
| 20260503120220 | -17 | 135 | 9.7 | 16.1 | 0.00 | 0.00 | 0.00 | 94 | 1012.7 |
| 20260503110219 | -17 | 135 | 8.0 | 12.9 | 0.00 | 0.00 | 0.00 | 95 | 1011.7 |